TimeMST,TemperatureF,Dew PointF,Humidity,Sea Level PressureIn,VisibilityMPH,Wind Direction,Wind SpeedMPH,Gust SpeedMPH,PrecipitationIn,Events,Conditions,WindDirDegrees,DateUTC
12:53 AM,25.0,21.0,85,30.14,10.0,Calm,Calm,-,N/A,,Clear,0,2013-01-20 07:53:00
1:53 AM,24.1,21.0,88,30.14,10.0,SSW,3.5,-,N/A,,Clear,210,2013-01-20 08:53:00
2:53 AM,21.9,18.0,85,30.15,10.0,Variable,5.8,-,N/A,,Clear,0,2013-01-20 09:53:00
3:53 AM,23.0,19.0,85,30.14,10.0,West,3.5,-,N/A,,Clear,280,2013-01-20 10:53:00
4:53 AM,21.9,17.1,82,30.18,10.0,West,3.5,-,N/A,,Clear,260,2013-01-20 11:53:00
5:53 AM,24.1,17.1,75,30.25,10.0,NW,4.6,-,N/A,,Clear,320,2013-01-20 12:53:00
6:53 AM,24.1,16.0,71,30.27,10.0,WNW,8.1,-,N/A,,Clear,300,2013-01-20 13:53:00
7:53 AM,25.0,16.0,69,30.32,10.0,NNW,10.4,-,N/A,,Clear,340,2013-01-20 14:53:00
8:53 AM,32.0,18.0,56,30.35,10.0,NNW,11.5,-,N/A,,Clear,340,2013-01-20 15:53:00
9:53 AM,33.1,18.0,54,30.38,10.0,NNW,19.6,25.3,N/A,,Clear,330,2013-01-20 16:53:00
10:53 AM,35.1,18.0,50,30.39,10.0,North,20.7,32.2,N/A,,Mostly Cloudy,350,2013-01-20 17:53:00
11:53 AM,34.0,17.1,50,30.38,10.0,North,21.9,27.6,N/A,,Overcast,360,2013-01-20 18:53:00
12:53 PM,32.0,18.0,56,30.37,10.0,North,10.4,18.4,N/A,,Overcast,360,2013-01-20 19:53:00
1:53 PM,33.1,18.0,54,30.34,10.0,North,11.5,-,N/A,,Scattered Clouds,360,2013-01-20 20:53:00
2:53 PM,34.0,17.1,50,30.33,10.0,North,8.1,-,N/A,,Clear,350,2013-01-20 21:53:00
3:53 PM,33.1,16.0,50,30.33,10.0,North,12.7,-,N/A,,Clear,10,2013-01-20 22:53:00
4:53 PM,28.0,15.1,58,30.36,10.0,NNE,8.1,-,N/A,,Clear,30,2013-01-20 23:53:00
5:53 PM,24.1,15.1,69,30.38,10.0,NNE,8.1,-,N/A,,Clear,30,2013-01-21 00:53:00
6:53 PM,19.0,12.9,77,30.40,10.0,ESE,3.5,-,N/A,,Clear,110,2013-01-21 01:53:00
7:53 PM,21.9,14.0,72,30.38,10.0,Calm,Calm,-,N/A,,Clear,0,2013-01-21 02:53:00
8:53 PM,15.1,10.9,84,30.40,10.0,Calm,Calm,-,N/A,,Clear,0,2013-01-21 03:53:00
9:53 PM,14.0,10.0,84,30.39,10.0,ENE,8.1,-,N/A,,Clear,60,2013-01-21 04:53:00
10:53 PM,14.0,10.0,84,30.37,10.0,NE,5.8,-,N/A,,Clear,40,2013-01-21 05:53:00
11:53 PM,14.0,10.9,88,30.36,10.0,NW,3.5,-,N/A,,Clear,310,2013-01-21 06:53:00